This is the latest recevied weather packets stored in our database for station/object DM4XI-13. If no packets are shown the sender has not sent any weather packets the latest 10 day(s).
| Time | Temp. | Humidity | Pressure | Rain* | Wind** | Luminosity | Snow |
|---|---|---|---|---|---|---|---|
| 1778145646 | 12.78° C | 80% | 1010.5 hPa | 0 mm | 1.79 m/s, 180° | 209 W/m² | - |
| 1778145585 | 12.78° C | 80% | 1010.5 hPa | 0 mm | 1.34 m/s, 167° | 241 W/m² | - |
| 1778145524 | 12.22° C | 82% | 1010.6 hPa | 0 mm | 2.24 m/s, 172° | 252 W/m² | - |
| 1778145463 | 12.22° C | 83% | 1010.6 hPa | 0 mm | 0.89 m/s, 174° | 245 W/m² | - |
| 1778145402 | 12.22° C | 82% | 1010.5 hPa | 0 mm | 0.45 m/s, 187° | 264 W/m² | - |
| 1778145341 | 12.22° C | 81% | 1010.4 hPa | 0 mm | 1.79 m/s, 265° | 308 W/m² | - |
| 1778145280 | 12.22° C | 81% | 1010.5 hPa | 0 mm | 1.79 m/s, 185° | 311 W/m² | - |
| 1778145219 | 11.67° C | 82% | 1010.4 hPa | 0 mm | 0.45 m/s, 199° | 308 W/m² | - |
| 1778145158 | 11.67° C | 83% | 1010.5 hPa | 0 mm | 0.89 m/s, 192° | 303 W/m² | - |
| 1778145097 | 11.67° C | 84% | 1010.4 hPa | 0 mm | 0.45 m/s, 189° | 273 W/m² | - |
| 1778145036 | 11.67° C | 84% | 1010.4 hPa | 0 mm | 0.45 m/s, 188° | 262 W/m² | - |
| 1778144975 | 11.11° C | 85% | 1010.5 hPa | 0 mm | 0.89 m/s, 186° | 252 W/m² | - |
| 1778144914 | 11.11° C | 85% | 1010.5 hPa | 0 mm | 1.34 m/s, 210° | 245 W/m² | - |
| 1778144853 | 11.11° C | 85% | 1010.6 hPa | 0 mm | 0.89 m/s, 195° | 235 W/m² | - |
| 1778144792 | 11.11° C | 86% | 1010.4 hPa | 0 mm | 1.79 m/s, 183° | 223 W/m² | - |
| 1778144731 | 11.11° C | 85% | 1010.4 hPa | 0 mm | 1.79 m/s, 164° | 207 W/m² | - |
| 1778144670 | 11.11° C | 86% | 1010.6 hPa | 0 mm | 1.34 m/s, 199° | 188 W/m² | - |
| 1778144609 | 11.11° C | 86% | 1010.3 hPa | 0 mm | 0.89 m/s, 222° | 171 W/m² | - |
| 1778144548 | 11.11° C | 86% | 1010.4 hPa | 0 mm | 0 m/s | 146 W/m² | - |
| 1778144487 | 11.11° C | 85% | 1010.5 hPa | 0 mm | 1.79 m/s, 187° | 116 W/m² | - |
| 1778144426 | 11.11° C | 86% | 1010.6 hPa | 0 mm | 1.79 m/s, 178° | 95 W/m² | - |
| 1778144365 | 11.11° C | 85% | 1010.4 hPa | 0 mm | 2.24 m/s, 186° | 83 W/m² | - |
| 1778144304 | 11.11° C | 85% | 1010.6 hPa | 0 mm | 1.34 m/s, 190° | 83 W/m² | - |
| 1778144243 | 11.11° C | 84% | 1010.2 hPa | 0 mm | 1.79 m/s, 141° | 96 W/m² | - |
| 1778144182 | 11.11° C | 84% | 1010.4 hPa | 0 mm | 2.24 m/s, 206° | 120 W/m² | - |
* Rain latest hour (hover to see other rain measurements)
** Current wind speed in m/s (hover to see current wind gust speed)